CZ-6A DEB

Satellite information

Favourite Embed

Satellite Type and Status

DEBRISIN ORBIT

Key statistics

Satellite CZ-6A DEB at a glance.

Uptime

1032

Days in orbit

Revolutions

≈ 14.0

Per day

Orbit

SSO

Sun Synchronous Orbit

Inclination

99.0

Latest

Satellite identification and parameters

Extended collection of information and parameters for CZ-6A DEB.

Object identification

Identified? True

Debris? True

Object name: CZ-6A DEB

International designator: 2022-151GM

Object number (NORAD): 54461

Object ID (CCSDS): 54461

Country: PEOPLES REPUBLIC OF CHINA (PRC)

Current information (Y/N): Y

RCS size: SMALL

Orbital parameters

Period: 103.01 minutes

Inclination: 99.0003 deg

SMA: 7279.148 km

Apoapsis: 996.416 km

Periapsis: 805.61 km

RAAN: 245.9084 deg

Eccentricy: 0.0131063

Argument of periapsis: 100.573 deg

Mean anomaly: 261.0227 deg

Mean motion: 13.97918819 rev/day

Mean motion (dot): 0.00001392 rev/day2

B* drag term: 0.00094054831 1/REarth

Two-line elements (TLE)

Creation date: Sept. 8, 2025, 3:16 a.m.

Reference frame: TEME

Reference center: EARTH

Epoch: Sept. 7, 2025, 10:11 p.m. UTC

TLE line 0: 0 CZ-6A DEB

TLE line 1: 1 54461U 22151GM 25250.92452425 .00001392 00000-0 94055-3 0 9999

TLE line 2: 2 54461 99.0003 245.9084 0131063 100.5730 261.0227 13.97918819143537

Live tracking on map

Real-time ground track for satellite CZ-6A DEB.

In-orbit conjunctions

A list of the most updated potential collisions computed for object CZ-6A DEB.

Target Orbit TCA Probability of collision Miss distance Type
CZ-6A DEB LEO 2025-06-06 16:02:45 0.000173719 165.0 (m) DEBRIS
COSMOS 1823 DEB LEO 2025-05-12 14:20:39 0.0001465582 216.0 (m) DEBRIS
SL-8 DEB MEO 2024-07-13 15:58:17 0.0005286518 24.0 (m) DEBRIS

Associated space launch

Chinese satellite reported for atmospheric/ocean/environmental/spatial parameter research purposes, details TBD.

CZ-6A DEB was lifted into orbit during the mission ‘Long March 6A | Yunhai 3’, on board a Long March 6A space rocket.

The launch took place on Nov. 11, 2022, 10:52 p.m. from Launch Complex 9A.

For more information about the launch, click the button.

Launch to space Long March 6A | Yunhai 3
Long March 6A | Yunhai 3

Agency: N/A

Status: Launch Successful

Launch date: Nov. 11, 2022, 10:52 p.m. UTC

Rocket: Long March 6A

Launch pad: Launch Complex 9A

Location: Taiyuan Satellite Launch Center, People's Republic of China

...

Latest news about this satellite

There are no fresh news available about this satellite. Check back as we update our databases every day.


Newsletter sign-up

Weekly statistics, charts and insights to help you stay on top of the space industry.